Weather reports worldwide

Advertisment
Paphos, Cyprus (17600): temperature & dewpoint: 19.04.2019 15:00:00 - 25.04.2019 15:00:00 (EEST)Paphos, Cyprus (17600): wind speed: 19.04.2019 15:00:00 - 25.04.2019 15:00:00 (EEST)Paphos, Cyprus (17600): wind direction: 19.04.2019 15:00:00 - 25.04.2019 15:00:00 (EEST)Paphos, Cyprus (17600): reduced air pressure: 19.04.2019 15:00:00 - 25.04.2019 15:00:00 (EEST)Paphos, Cyprus (17600): visibility: 19.04.2019 15:00:00 - 25.04.2019 15:00:00 (EEST)
Date & Time tt [°C] td [°C] ff [km/h] ff [kn] dd ppp [hPa] vv [km]
25.04.2019 15:00:00 21,3 14,7 13 7 W 1021,7 15
25.04.2019 14:00:00 22,0 14,0 11 6 SW - 10
25.04.2019 13:00:00 21,0 13,0 8 4 SW - 10
25.04.2019 12:00:00 21,0 9,3 8 4 WSW 1023,6 10
25.04.2019 11:00:00 20,0 11,0 8 4 SW - 10
25.04.2019 10:00:00 21,0 8,0 9 5 SSE - 10
25.04.2019 09:00:00 19,8 7,5 9 5 ESE 1022,9 10
25.04.2019 08:00:00 18,0 8,0 4 2 - - 10
25.04.2019 07:00:00 14,0 6,0 8 4 NNE - 10
25.04.2019 06:00:00 12,1 5,5 9 5 N 1022,7 10
25.04.2019 05:00:00 13,0 4,0 11 6 NNE - 10
25.04.2019 04:00:00 12,0 5,0 15 8 N - 10
25.04.2019 03:00:00 15,1 3,0 5 3 NNE 1023,1 15
25.04.2019 02:00:00 17,0 1,0 15 8 NE - 10
25.04.2019 01:00:00 16,0 3,0 21 11 NNE - 10
25.04.2019 00:00:00 14,0 5,6 8 4 NE 1024,0 10
24.04.2019 23:00:00 16,0 4,0 5 3 NNE - 10
24.04.2019 22:00:00 15,0 6,0 5 3 NNE - 10
24.04.2019 21:00:00 15,6 9,9 9 5 N 1024,9 15
24.04.2019 20:00:00 17,0 9,0 16 9 WNW - 10
24.04.2019 19:00:00 18,0 12,0 21 11 WNW - 10
24.04.2019 18:00:00 19,1 12,4 22 12 W 1024,9 10
24.04.2019 17:00:00 20,0 13,0 26 14 W - 10
24.04.2019 16:00:00 21,0 13,0 24 13 WNW - 10
24.04.2019 15:00:00 21,2 12,1 26 14 W 1026,1 20
24.04.2019 14:00:00 20,0 13,0 18 10 WSW - 10
24.04.2019 13:00:00 21,0 12,0 11 6 SSW - 10
24.04.2019 12:00:00 20,3 11,8 11 6 SSE 1027,2 30
24.04.2019 11:00:00 20,0 11,0 15 8 SSE - 10
24.04.2019 10:00:00 19,0 10,0 16 9 SSE - 10
24.04.2019 09:00:00 18,3 8,8 15 8 ESE 1025,1 30
24.04.2019 08:00:00 15,0 7,0 9 5 NNE - 10
24.04.2019 07:00:00 13,0 5,0 11 6 NNE - 10
24.04.2019 06:00:00 12,4 4,6 13 7 NE 1025,1 10
24.04.2019 05:00:00 12,0 5,0 13 7 NNE - 10
24.04.2019 04:00:00 12,0 6,0 16 9 NNE - 10
24.04.2019 03:00:00 11,9 6,2 13 7 NNE 1025,9 10
24.04.2019 02:00:00 12,0 7,0 13 7 NE - 10
24.04.2019 01:00:00 12,0 7,0 4 2 - - 10
24.04.2019 00:00:00 11,7 7,8 8 4 NE 1025,9 15
23.04.2019 23:00:00 13,0 8,0 11 6 N - 10
23.04.2019 22:00:00 13,0 10,0 11 6 NNW - 10
23.04.2019 21:00:00 14,2 10,4 8 4 N 1025,8 10
23.04.2019 20:00:00 16,0 11,0 9 5 NW - 10
23.04.2019 19:00:00 19,0 11,0 11 6 W - 10
23.04.2019 18:00:00 19,0 10,7 11 6 W 1024,4 10
23.04.2019 17:00:00 19,0 10,0 18 10 W - 10
23.04.2019 16:00:00 20,0 11,0 15 8 WSW - 10
23.04.2019 15:00:00 19,7 10,4 15 8 W 1024,2 30
23.04.2019 14:00:00 - - - - - - -
23.04.2019 13:00:00 20,0 12,0 16 9 WSW - 10
23.04.2019 12:00:00 20,4 10,4 8 4 SSW 1024,5 10
23.04.2019 11:00:00 20,0 11,0 9 5 WSW - 10
23.04.2019 10:00:00 18,0 8,0 9 5 SW - 10
23.04.2019 09:00:00 17,7 4,3 9 5 N 1022,7 10
23.04.2019 08:00:00 14,0 5,0 11 6 NNE - 10
23.04.2019 07:00:00 10,0 4,0 16 9 NNE - 10
23.04.2019 06:00:00 8,8 3,2 13 7 NNE 1021,3 10
23.04.2019 05:00:00 10,0 4,0 15 8 NNE - 10
23.04.2019 04:00:00 10,0 3,0 13 7 NNE - 10
23.04.2019 03:00:00 10,6 4,5 13 7 NNE 1020,4 15
23.04.2019 02:00:00 9,0 4,0 13 7 NNE - 10
23.04.2019 01:00:00 10,0 4,0 11 6 NE - 10
23.04.2019 00:00:00 10,7 4,4 4 2 - 1019,7 10
22.04.2019 23:00:00 11,0 4,0 13 7 NE - 10
22.04.2019 22:00:00 13,0 4,0 9 5 NE - 10
22.04.2019 21:00:00 12,2 4,2 16 9 N 1019,1 20
22.04.2019 20:00:00 14,0 5,0 11 6 NNW - 10
22.04.2019 19:00:00 16,0 5,0 22 12 WNW - 10
22.04.2019 18:00:00 18,0 4,2 24 13 NW 1017,5 10
22.04.2019 17:00:00 19,0 4,0 29 16 NW - 10
22.04.2019 16:00:00 19,0 4,0 31 17 WNW - 10
22.04.2019 15:00:00 19,0 5,5 32 17 WNW 1016,9 30
22.04.2019 14:00:00 19,0 5,0 29 16 WNW - 10
22.04.2019 13:00:00 19,0 3,0 29 16 NW - 10
22.04.2019 12:00:00 18,9 6,4 28 15 WNW 1016,1 10
22.04.2019 11:00:00 19,0 4,0 26 14 WNW - 10
22.04.2019 10:00:00 19,0 6,0 24 13 NW - 10
22.04.2019 09:00:00 17,7 5,0 18 10 WNW 1014,7 10
22.04.2019 08:00:00 15,0 6,0 5 3 N - 10
22.04.2019 07:00:00 10,0 6,0 9 5 NNE - 10
22.04.2019 06:00:00 9,2 4,4 15 8 N 1014,2 10
22.04.2019 05:00:00 10,0 4,0 9 5 N - 10
22.04.2019 04:00:00 11,0 5,0 13 7 NNW - 10
22.04.2019 03:00:00 14,6 4,0 13 7 NNW 1014,2 20
22.04.2019 02:00:00 15,0 6,0 21 11 NW - 10
22.04.2019 01:00:00 15,0 6,0 15 8 NW - 10
22.04.2019 00:00:00 15,1 6,7 21 11 WNW 1015,6 10
21.04.2019 23:00:00 15,0 6,0 22 12 NW - 10
21.04.2019 22:00:00 15,0 6,0 26 14 NW - 10
21.04.2019 21:00:00 15,1 6,7 18 10 NW 1015,6 10
21.04.2019 20:00:00 14,0 2,0 11 6 NW - 10
21.04.2019 19:00:00 16,0 1,0 21 11 NW - 10
21.04.2019 18:00:00 17,8 2,5 28 15 NW 1014,8 10
21.04.2019 17:00:00 19,0 -2,0 24 13 NW - 10
21.04.2019 16:00:00 19,0 0,0 22 12 NNW - 10
21.04.2019 15:00:00 17,7 3,2 34 18 WNW 1014,5 10
21.04.2019 14:00:00 18,0 3,0 34 18 WNW - 10
21.04.2019 13:00:00 18,0 4,0 26 14 NW - 10
21.04.2019 12:00:00 17,5 0,6 26 14 NNW 1014,2 10
21.04.2019 11:00:00 18,0 0,0 22 12 NNW - 10
21.04.2019 10:00:00 16,0 4,0 15 8 NW - 10
21.04.2019 09:00:00 12,5 1,8 26 14 N 1013,7 10
21.04.2019 08:00:00 12,0 4,0 9 5 N - 10
21.04.2019 07:00:00 9,0 3,0 11 6 N - 10
21.04.2019 06:00:00 8,0 2,9 15 8 N 1012,2 10
21.04.2019 05:00:00 8,0 4,0 13 7 N - 10
21.04.2019 04:00:00 9,0 4,0 13 7 NE - 10
21.04.2019 03:00:00 9,8 3,3 31 17 NNE 1012,1 10
21.04.2019 02:00:00 10,0 5,0 24 13 N - 10
21.04.2019 01:00:00 9,0 5,0 5 3 NNE - 10
21.04.2019 00:00:00 10,4 5,6 11 6 NE 1012,9 10
20.04.2019 23:00:00 10,0 5,0 8 4 ENE - 10
20.04.2019 22:00:00 11,0 6,0 8 4 NNE - 10
20.04.2019 21:00:00 13,6 4,5 5 3 ENE 1013,4 10
20.04.2019 20:00:00 14,0 6,0 9 5 NW - 10
20.04.2019 19:00:00 16,0 6,0 18 10 WNW - 10
20.04.2019 18:00:00 17,6 6,5 26 14 WNW 1013,5 20
20.04.2019 17:00:00 19,0 6,0 26 14 NW - 10
20.04.2019 16:00:00 20,0 6,0 31 17 WNW - 10
20.04.2019 15:00:00 19,6 8,0 29 16 WNW 1013,3 10
20.04.2019 14:00:00 20,0 10,0 26 14 W - 10
20.04.2019 13:00:00 21,0 10,0 21 11 WNW - 10
20.04.2019 12:00:00 18,0 10,6 16 9 WSW 1013,8 10
20.04.2019 11:00:00 19,0 11,0 13 7 SW - 10
20.04.2019 10:00:00 18,0 11,0 8 4 SSW - 10
20.04.2019 09:00:00 16,8 9,7 4 2 - 1013,5 10
20.04.2019 08:00:00 14,0 10,0 5 3 NE - 10
20.04.2019 07:00:00 10,0 8,0 13 7 NNE - 10
20.04.2019 06:00:00 10,2 8,1 5 3 ENE 1013,4 10
20.04.2019 05:00:00 11,0 9,0 8 4 NNE - 10
20.04.2019 04:00:00 12,0 8,0 9 5 NE - 10
20.04.2019 03:00:00 11,6 9,5 4 2 NE 1014,2 10
20.04.2019 02:00:00 12,0 10,0 8 4 N - 10
20.04.2019 01:00:00 13,0 10,0 9 5 N - 10
20.04.2019 00:00:00 13,6 9,6 9 5 NNE 1015,3 10
19.04.2019 23:00:00 16,0 11,0 11 6 WNW - 10
19.04.2019 22:00:00 16,0 11,0 18 10 W - 10
19.04.2019 21:00:00 16,6 10,7 16 9 W 1015,6 10
19.04.2019 20:00:00 17,0 11,0 22 12 W - 10
19.04.2019 19:00:00 17,0 9,0 21 11 NW - 10
19.04.2019 18:00:00 19,0 9,0 28 15 NW - 10
19.04.2019 17:00:00 20,0 8,0 28 15 WNW - 10
19.04.2019 16:00:00 20,0 6,0 34 18 WNW - 10
19.04.2019 15:00:00 20,0 9,6 31 17 WNW 1013,9 10

tt = temperature
td = dewpoint
ff = wind speed
dd = wind direction
ppp = reduced air pressure
vv = visibility

Next stations